Location: R�o Tuerlos
(40.6704°N, 4.4622°W)
Time: 07:58:02
(UTC+00:00)

ADEOS II - Pass Details

Date: 07 June 2020
Orbit: 800 x 800 km, 98.5° (Epoch: 07 July)

Event Time Altitude Azimuth Distance (km) Brightness Sun altitude
Rises 02:44:48 0° 13° (NNE) 3,317 6.5 -17.8°
Reaches altitude 10° 02:47:08 10° 13° (NNE) 2,382 5.6 -17.6°
Maximum altitude 02:52:25 88° 287° (WNW) 806 2.0 -17.0°
Enters shadow 02:55:35 25° 196° (SSW) 1,571 3.1 -16.6°
